Location: Marcé
(47.5801°N, 0.3280°W)
Time: 14:07:14
(UTC+01:00)

Explorer 7 - Pass Details

Date: 02 December 2021
Orbit: 483 x 674 km, 50.3° (Epoch: 19 January)

Event Time Altitude Azimuth Distance (km) Brightness Sun altitude
Rises 07:42:43 0° 232° (SW) 2,799 10.1 -7.8°
Reaches altitude 10° 07:45:05 10° 228° (SW) 1,867 9.3 -7.4°
Maximum altitude 07:49:13 53° 151° (SSE) 672 7.7 -6.8°
Drops below altitude 10° 07:53:07 10° 74° (ENE) 1,764 10.2 -6.2°
Sets 07:55:18 0° 70° (ENE) 2,627 11.0 -5.9°
